[[{"header":{"parameterUnit":"m.s-1","parameterCategory":1,"la1":30.2991,"la2":30.254,"lo1":-89.0895,"lo2":-89.0444,"dy":0.0017,"dx":0.0017,"nx":28,"ny":28,"refTime":"2023-09-08T21:00:00:Z","depth":0,"parameterNumber":2,"parameterNumberName":"U-component_of_WINDS"},"data":[0,0,0,0,0,0,0,0,0,0,0,0,0,0,0,0,0,0,0,0,0,0,0,0,0,0,0,0,0,0,0,0,0,0,0,0,0,0,0,0,0,0,0,0,0,0,0,0,0,0,0,0,0,0,0,0,0,0,-0.4517,-0.4515,0,-0.4404,-0.4403,-0.4401,-0.4259,-0.4256,-0.4254,-0.4252,-0.4136,-0.4135,-0.4134,0,0,0,0,0,0,0,0,0,0,0,0,0,-0.4608,-0.4607,-0.4517,-0.4515,-0.4514,-0.4404,-0.4403,-0.4401,-0.4259,-0.4256,-0.4254,-0.4251,-0.4136,-0.4135,-0.4134,0,0,0,0,0,0,0,0,0,0,0,0,0,-0.4539,-0.4607,-0.4517,-0.443,-0.4421,-0.4404,-0.4402,-0.4401,-0.426,-0.4256,-0.4253,-0.425,-0.4136,-0.4135,-0.4134,-0.4193,0,0,-0.4129,-0.4129,0,0,0,0,0,0,0,0,-0.4543,-0.4536,-0.4444,-0.4436,-0.4426,-0.4342,-0.4392,-0.4331,-0.4261,-0.4321,-0.4252,-0.4248,-0.4207,-0.42,-0.4186,-0.4188,-0.4183,-0.4129,-0.4128,-0.4128,-0.4127,0,0,0,0,0,0,0,-0.4548,-0.454,-0.4472,-0.4443,-0.4432,-0.4396,-0.4382,-0.438,-0.4285,-0.4315,-0.4305,-0.4293,-0.4201,-0.4188,-0.4182,-0.4181,-0.4129,-0.4128,-0.4127,-0.4126,-0.4225,-0.4229,0,0,0,0,0,0,-0.4566,-0.4545,-0.4476,-0.4469,-0.4477,-0.4397,-0.4382,-0.4372,-0.4284,-0.4267,-0.4297,-0.4287,-0.4192,-0.4184,-0.4178,-0.4241,-0.4128,-0.4126,-0.4125,-0.4222,-0.4226,-0.423,0,0,0,0,0,0,-0.4569,-0.4561,-0.448,-0.4504,-0.4491,-0.4399,-0.439,-0.4372,-0.4358,-0.427,-0.4252,-0.43,-0.4189,-0.418,-0.419,-0.4235,-0.4126,-0.4124,-0.4218,-0.4223,-0.4228,-0.437,0,0,0,0,0,0,-0.4572,-0.4563,-0.4585,-0.4505,-0.449,-0.4496,-0.4392,-0.4372,-0.4356,-0.4343,-0.4269,-0.4253,-0.4185,-0.4193,-0.4189,-0.4231,-0.4123,-0.4213,-0.422,-0.4226,-0.4361,-0.438,-0.4395,0,0,0,0,0,-0.4576,-0.4629,-0.4587,-0.4579,-0.4516,-0.4499,-0.449,-0.4411,-0.436,-0.4381,-0.4325,-0.4255,-0.4231,-0.4196,-0.4189,-0.4232,-0.421,-0.4218,-0.4226,-0.4353,-0.4376,-0.4395,0,0,0,0,0,0,-0.4717,-0.4617,-0.4569,-0.4599,-0.4559,-0.4475,-0.4499,-0.4438,-0.4411,-0.4399,-0.4303,-0.4287,-0.431,-0.4271,-0.4234,-0.4285,-0.421,-0.4217,-0.4309,-0.433,-0.4347,-0.4356,-0.4122,0,0,0,0,0,-0.4752,-0.4746,-0.4659,-0.4694,-0.4676,-0.4592,-0.4581,-0.4524,-0.4478,-0.446,-0.4404,-0.4362,-0.4344,-0.4335,-0.4314,-0.4354,-0.4336,-0.4381,-0.4398,-0.4412,-0.442,-0.4438,-0.4457,-0.4256,-0.4256,-0.4256,0,0,-0.4823,-0.4768,-0.4771,-0.4721,-0.4683,-0.4679,-0.4578,-0.4578,-0.4575,-0.446,-0.4467,-0.4424,-0.437,-0.4397,-0.4405,-0.4365,-0.4471,-0.4422,-0.4435,-0.4434,-0.4449,-0.4468,-0.4485,-0.4261,-0.426,-0.4259,0,0,-0.4952,-0.491,-0.4934,-0.4898,-0.4841,-0.4784,-0.479,-0.4715,-0.4683,-0.4688,-0.4602,-0.4596,-0.4568,-0.4533,-0.4512,-0.4627,-0.4562,-0.4623,-0.4713,-0.4732,-0.4748,-0.4762,-0.4803,-0.4819,-0.463,-0.463,-0.4631,0,-0.5048,-0.5039,-0.4954,-0.496,-0.4941,-0.4836,-0.486,-0.4829,-0.4769,-0.4757,-0.4714,-0.4676,-0.4633,-0.4649,-0.4677,-0.4663,-0.4667,-0.4631,-0.4753,-0.4766,-0.4777,-0.4815,-0.4831,-0.4638,-0.4637,-0.4637,-0.4636,0,-0.516,-0.5156,-0.5182,-0.5127,-0.511,-0.5125,-0.5042,-0.5035,-0.4979,-0.4927,-0.4934,-0.4878,-0.4844,-0.4843,-0.4788,-0.4852,-0.4829,-0.4771,-0.4694,-0.4806,-0.484,-0.4854,-0.4649,-0.4647,-0.4644,-0.4642,0,0,-0.5375,-0.5272,-0.5284,-0.5257,-0.5187,-0.5181,-0.5191,-0.5158,-0.5154,-0.5116,-0.5122,-0.51,-0.5046,-0.5022,-0.4962,-0.4979,-0.5074,-0.4918,-0.4915,-0.495,-0.5141,-0.5186,-0.5204,-0.503,-0.5033,-0.5035,-0.5145,0,-0.5491,-0.5503,-0.5426,-0.5458,-0.5453,-0.5353,-0.5362,-0.532,-0.5271,-0.5259,-0.5204,-0.5191,-0.512,-0.5105,-0.5117,-0.506,-0.5111,-0.5051,-0.5035,-0.5035,-0.5053,-0.5222,-0.527,-0.5377,-0.5158,-0.516,-0.5162,0,-0.5628,-0.5598,-0.563,-0.5558,-0.5552,-0.5562,-0.5525,-0.5515,-0.5464,-0.5427,-0.5401,-0.5333,-0.5336,-0.5263,-0.5267,-0.5228,-0.5217,-0.5188,-0.519,-0.5186,-0.5106,-0.5223,-0.5409,-0.5426,-0.5182,-0.5181,-0.5179,0,-0.5783,-0.575,-0.5764,-0.5745,-0.5661,-0.567,-0.5635,-0.5581,-0.5566,-0.5534,-0.5523,-0.5492,-0.5475,-0.5452,-0.5377,-0.533,-0.539,-0.531,-0.5359,-0.5362,-0.5377,-0.5377,-0.5565,-0.5369,-0.5369,-0.5369,-0.5368,0,-0.5921,-0.5945,-0.5833,-0.5842,-0.5865,-0.5776,-0.5802,-0.5757,-0.571,-0.5708,-0.562,-0.562,-0.552,-0.551,-0.545,-0.5463,-0.5456,-0.5426,-0.541,-0.5435,-0.5439,-0.5426,-0.5417,-0.5373,-0.5372,-0.5371,-0.537,0,-0.6098,-0.6024,-0.6034,-0.5953,-0.5934,-0.5954,-0.5885,-0.589,-0.5836,-0.5835,-0.5829,-0.5744,-0.5727,-0.5649,-0.5613,-0.5573,-0.5606,-0.5574,-0.5623,-0.5613,-0.5667,-0.5664,-0.5854,-0.5874,-0.5666,-0.5668,-0.567,0,-0.6192,-0.6207,-0.6129,-0.6121,-0.6091,-0.608,-0.6064,-0.5977,-0.5964,-0.5908,-0.592,-0.5895,-0.5871,-0.5848,-0.5782,-0.5754,-0.5721,-0.579,-0.5717,-0.5741,-0.5723,-0.5724,-0.5725,-0.5806,-0.5809,-0.5811,-0.5813,0,-0.6365,-0.6328,-0.6309,-0.6277,-0.6261,-0.6231,-0.6197,-0.6196,-0.6099,-0.6089,-0.607,-0.6051,-0.6014,-0.5991,-0.5952,-0.5915,-0.5849,-0.5836,-0.5846,-0.5872,-0.59,-0.5886,-0.5667,-0.5833,-0.5831,-0.5829,-0.5828,-0.5827,-0.6503,-0.6513,-0.6459,-0.644,-0.6405,-0.6375,-0.6376,-0.6321,-0.6304,-0.6268,-0.6217,-0.6205,-0.6153,-0.6094,-0.6063,-0.6052,-0.6014,-0.6028,-0.6032,-0.6037,-0.605,-0.5901,-0.6044,-0.6043,-0.6043,-0.6042,-0.6042,0,-0.6673,-0.6633,-0.6617,-0.6572,-0.6557,-0.6495,-0.6453,-0.6445,-0.6436,-0.6394,-0.6372,-0.635,-0.6327,-0.626,-0.623,-0.6234,-0.6202,-0.6229,-0.6228,-0.6221,-0.6085,-0.608,-0.6255,-0.6255,-0.6255,-0.6255,-0.6255,-0.6255,-0.6759,-0.6772,-0.6729,-0.6723,-0.6682,-0.667,-0.6652,-0.6623,-0.6589,-0.6569,-0.6549,-0.6506,-0.6453,-0.6418,-0.6394,-0.6375,-0.6368,-0.6405,-0.6376,-0.6251,-0.623,-0.6211,-0.6205,-0.6405,-0.6405,-0.6513,-0.6514,-0.6515]},{"header":{"parameterUnit":"m.s-1","parameterCategory":1,"la1":30.2991,"la2":30.254,"lo1":-89.0895,"lo2":-89.0444,"dy":0.0017,"dx":0.0017,"nx":28,"ny":28,"refTime":"2023-09-08T21:00:00:Z","depth":0,"parameterNumber":3,"parameterNumberName":"V-component_of_WINDS"},"data":[0,0,0,0,0,0,0,0,0,0,0,0,0,0,0,0,0,0,0,0,0,0,0,0,0,0,0,0,0,0,0,0,0,0,0,0,0,0,0,0,0,0,0,0,0,0,0,0,0,0,0,0,0,0,0,0,0,0,1.0116,1.0116,0,1.0052,1.0051,1.005,1.0041,1.0041,1.0042,1.0042,0.9975,0.9972,0.997,0,0,0,0,0,0,0,0,0,0,0,0,0,1.023,1.0228,1.0116,1.0116,1.0115,1.0052,1.0051,1.005,1.0041,1.0041,1.0042,1.0043,0.9975,0.9973,0.997,0,0,0,0,0,0,0,0,0,0,0,0,0,1.0174,1.0227,1.0117,1.0102,1.0101,1.0052,1.0051,1.005,1.004,1.0041,1.0042,1.0043,0.9976,0.9973,0.9969,0.993,0,0,0.9959,0.9957,0,0,0,0,0,0,0,0,1.0177,1.017,1.0105,1.0103,1.0101,1.0055,1.0066,1.001,1.004,1.0063,1.0042,1.0043,1.0001,0.9995,0.9981,0.9927,0.9924,0.9958,0.9956,0.9955,0.9954,0,0,0,0,0,0,0,1.0181,1.0173,1.0091,1.0104,1.0102,1.0099,1.0092,1.0055,1.0028,1.0061,1.006,1.0053,1.0,0.9984,0.9979,0.9923,0.9958,0.9955,0.9953,0.9952,0.9832,0.9831,0,0,0,0,0,0,1.0188,1.0176,1.0093,1.0089,1.0142,1.0096,1.0088,1.0069,1.0028,1.0023,1.0052,1.0053,0.999,0.9983,0.9977,0.9927,0.9955,0.9951,0.9949,0.9833,0.9832,0.9831,0,0,0,0,0,0,1.019,1.0181,1.0095,1.0132,1.0121,1.0093,1.0072,1.0067,1.0052,1.0021,1.0016,1.0042,0.999,0.9982,0.9942,0.9924,0.995,0.9947,0.9834,0.9833,0.9831,0.9827,0,0,0,0,0,0,1.0194,1.0182,1.0167,1.0132,1.0119,1.0062,1.0071,1.0065,1.0046,1.0046,1.001,1.0005,0.9991,0.9947,0.9938,0.992,0.9944,0.9836,0.9834,0.9832,0.9829,0.9826,0.9823,0,0,0,0,0,1.0198,1.0168,1.0166,1.0156,1.01,1.0061,1.0053,1.0038,1.0045,1.0029,1.001,1.0006,0.9928,0.9943,0.9933,0.9913,0.9837,0.9834,0.9832,0.983,0.9826,0.9823,0,0,0,0,0,0,1.02,1.0163,1.016,1.0119,1.0093,1.0059,1.0039,1.0034,1.0006,1.0007,0.9988,0.998,0.994,0.9923,0.994,0.9873,0.9883,0.9879,0.9885,0.9881,0.9879,0.9883,0.9941,0,0,0,0,0,1.0196,1.0168,1.0137,1.0103,1.009,1.0067,1.0049,1.0039,1.0012,1.0001,0.9978,0.9951,0.992,0.99,0.987,0.9827,0.9818,0.9809,0.9806,0.9804,0.98,0.9774,0.9769,0.9823,0.9823,0.9823,0,0,1.0187,1.0163,1.0146,1.0103,1.0082,1.0052,1.0058,1.0026,1.0003,0.9996,0.9956,0.9938,0.9907,0.9865,0.9845,0.9849,0.9783,0.9801,0.98,0.9796,0.9771,0.9766,0.9762,0.9821,0.9822,0.9822,0,0,1.0155,1.0135,1.0103,1.0082,1.0051,1.0036,1.0028,0.9995,0.9983,0.9943,0.9937,0.991,0.9858,0.9835,0.9817,0.9777,0.9772,0.9768,0.9752,0.9728,0.9723,0.9719,0.9703,0.9698,0.9764,0.9764,0.9764,0,1.0147,1.0102,1.0088,1.0056,1.0037,1.0029,0.9997,0.9977,0.9937,0.9924,0.993,0.9864,0.9842,0.9794,0.9784,0.977,0.976,0.977,0.9725,0.9721,0.9717,0.9702,0.9696,0.9763,0.9763,0.9763,0.9763,0,1.0093,1.0063,1.0041,1.0003,0.9982,0.995,0.993,0.991,0.9903,0.9887,0.9846,0.982,0.9784,0.9773,0.9765,0.9723,0.9727,0.9729,0.9739,0.9712,0.9697,0.9691,0.9763,0.9763,0.9763,0.9763,0,0,1.0059,1.0014,1.0006,0.9988,0.9953,0.9929,0.9897,0.9863,0.9845,0.9818,0.979,0.9746,0.9749,0.9728,0.9718,0.9697,0.9665,0.9702,0.9701,0.9694,0.9615,0.9612,0.9605,0.9663,0.9661,0.9661,0.9617,0,1.0021,0.9964,0.995,0.9901,0.9871,0.9864,0.9836,0.9811,0.9796,0.9768,0.9752,0.972,0.9726,0.9714,0.9693,0.9673,0.9648,0.9676,0.9634,0.9633,0.964,0.9598,0.9594,0.9555,0.9612,0.9611,0.961,0,0.9968,0.994,0.9888,0.9856,0.9844,0.9819,0.9786,0.976,0.9732,0.9722,0.9699,0.9691,0.9657,0.967,0.9622,0.9642,0.9624,0.9612,0.961,0.9604,0.9618,0.9588,0.9542,0.9535,0.9601,0.9602,0.9602,0,0.9946,0.9896,0.9857,0.9843,0.9805,0.9788,0.9771,0.9744,0.9724,0.9696,0.9682,0.965,0.9632,0.9607,0.9591,0.9602,0.9544,0.9556,0.9533,0.9533,0.9519,0.952,0.9467,0.9512,0.9512,0.9512,0.9512,0,0.9903,0.9871,0.9847,0.9823,0.9787,0.9772,0.9736,0.9719,0.9695,0.9667,0.966,0.9635,0.9616,0.9587,0.9574,0.9535,0.9528,0.9518,0.9515,0.9517,0.9518,0.9504,0.9505,0.951,0.9511,0.9511,0.9511,0,0.9871,0.9854,0.9811,0.978,0.9771,0.9745,0.9718,0.9695,0.968,0.9645,0.9636,0.9612,0.9578,0.956,0.9518,0.9509,0.9465,0.9464,0.9474,0.9472,0.945,0.9452,0.9384,0.9374,0.9428,0.9427,0.9427,0,0.9844,0.9819,0.9785,0.9766,0.9749,0.9719,0.9699,0.9684,0.9663,0.9629,0.9609,0.9575,0.9547,0.9493,0.9471,0.9439,0.9436,0.9414,0.943,0.9434,0.9433,0.9433,0.943,0.9411,0.941,0.941,0.9409,0,0.9796,0.9789,0.9761,0.9729,0.9705,0.9679,0.9653,0.9638,0.9619,0.9596,0.9561,0.9539,0.9496,0.9462,0.9428,0.9411,0.9406,0.9405,0.9398,0.9399,0.9405,0.9399,0.9464,0.9406,0.9406,0.9407,0.9407,0.9407,0.9764,0.9741,0.9713,0.9682,0.9661,0.9637,0.9613,0.9596,0.9567,0.953,0.9524,0.9487,0.9459,0.9413,0.9395,0.9365,0.9369,0.9359,0.9356,0.9353,0.9351,0.9412,0.9359,0.9359,0.9359,0.9359,0.936,0,0.9715,0.9697,0.9668,0.9632,0.9607,0.9607,0.9579,0.9557,0.9525,0.95,0.9472,0.9432,0.9399,0.9376,0.9342,0.9323,0.932,0.9314,0.9314,0.931,0.935,0.9359,0.9317,0.9317,0.9317,0.9317,0.9317,0.9317,0.9686,0.9646,0.9636,0.9586,0.9569,0.9532,0.9516,0.9494,0.9474,0.9429,0.9402,0.9387,0.9363,0.9327,0.9297,0.9291,0.9277,0.9271,0.9265,0.9303,0.9307,0.9311,0.9319,0.9269,0.9269,0.9226,0.9226,0.9226]}]]